Regional Weather Roundup
Issued by NWS

Home | Current Version | Previous Version | Graphics & Text | Print | Product List | Glossary On
Versions: 1 2 3 4 5 6 7 8 9 10 11 12 13 14 15 16 17 18 19 20 21 22 23 24 25 26 27 28 29 30 31 32 33 34 35 36 37 38 39 40 41 42 43 44 45 46 47 48 49 50
779
ASUS45 KSLC 071110
RWRUT

UTAH REGIONAL WEATHER ROUNDUP
NATIONAL WEATHER SERVICE SALT LAKE CITY UT
400 AM MST SUN FEB 07 2016

UTZ001>011-023>025-071200-

NORTHERN UTAH

CITY           SKY/WX    TMP DP  RH WIND       PRES   REMARKS
BRIGHAM CITY     N/A     19  17  90 CALM      30.51S
HILL AFB       PTCLDY    24  14  65 SE3       30.48R
LOGAN          PTCLDY    19  17  92 S6        30.48R FOG     WCI  11
OGDEN          PTCLDY    23  18  81 S7        30.48R WCI  15
PROVO AIRPORT  PTCLDY    12  10  92 CALM      30.50F
SALT LAKE CITY PTCLDY    25  19  78 SE6       30.49S WCI  18
VERNAL         CLOUDY     8   4  83 NW5       30.44F WCI   0
WENDOVER       MOCLDY    25  19  80 NW3       30.53R
HEBER CITY     PTCLDY    10   7  85 E3        30.45F
WEST JORDAN    CLEAR     23  19  86 CALM      30.49R

$$

UTZ012>022-026-027-071200-

SOUTHERN/CENTRAL UTAH

CITY           SKY/WX    TMP DP  RH WIND       PRES   REMARKS
BLANDING       CLEAR     18  14  83 N3        30.47F
BRYCE CANYON   CLEAR      5   1  83 W5        30.43F WCI  -4
CEDAR CITY     PTCLDY     8   5  87 NE3       30.42F
DELTA          CLOUDY     3   1  88 CALM      30.51S VSB<1/4
HANKSVILLE     CLOUDY    18  16  93 CALM      30.54F VSB 1/2
MILFORD        FOG       -2  -5  87 S7        30.49R VSB 1   WCI -15
MOAB/CYNLANDS  MOCLDY     2  -1  88 CALM      30.50S
PRICE          PTCLDY    10   5  80 CALM      30.42F
ST GEORGE      MOSUNNY   36  23  60 CALM      30.42F
KANAB          CLEAR     30  23  74 N3        30.44S

$$

REGIONAL REPORTS     COLORADO/ARIZONA

CITY           SKY/WX    TMP DP  RH WIND       PRES   REMARKS
CRAIG, CO      CLOUDY     4   0  83 CALM      30.39S
GRAND JUNCTION CLOUDY    15  13  91 CALM      30.50R
RIFLE          CLOUDY    13   8  81 SE3       30.47R
MONTROSE       CLOUDY    14   8  77 S3        30.46F
CORTEZ         CLOUDY    12   8  84 E10       30.40F WCI  -1
PAGE, AZ       CLEAR     28  22  78 CALM      30.44F
GRAND CANYON   CLEAR     19  12  74 NE7       30.39S WCI  10
KINGMAN        CLEAR     37  22  54 E9        30.33R WCI  30
FLAGSTAFF      CLEAR     13   9  84 CALM      30.39F

$$

REGIONAL REPORTS    NEVADA/IDAHO/WYOMING

CITY           SKY/WX    TMP DP  RH WIND       PRES   REMARKS
LAS VEGAS, NV  CLEAR     44  25  47 SW5       30.31S
ELY            PTCLDY     6   0  76 S14       30.47R WCI -11
ELKO           PTCLDY     9   5  84 E3        30.55R
POCATELLO, ID  CLOUDY    31  24  75 SW9       30.48R WCI  23
BURLEY         PTCLDY    31  25  78 SW7       30.45R WCI  24
EVANSTON, WY   CLOUDY    24  12  60 W9        30.40R WCI  14
ROCK SPRINGS   CLOUDY    25  16  68 W21       30.33F WCI  11

$$




USA.gov is the U.S. government's official web portal to all federal, state and local government web resources and services.